Flag for Canada Weather past 2 weeks in Thunder Bay, Ontario, Canada

Now
41 °F

Passing clouds.


Feels Like: 36 °F
Forecast: 23 / 40 °F
Wind: 7 mph from Southeast

Location: Thunder Bay


UV Index: 3 (Moderate)

Visibility: 20 mi


Pressure: 30.43 "Hg

Humidity: 53%

Dew point: 25 °F

Location of Thunder BayLocation

Historic Weather in Thunder Bay

°F

Thunder Bay temperature yesterday

Maximum temperature yesterday: 32 °F (at 1:52 PM)
Minimum temperature yesterday: 27 °F (at 12:00 AM)
Average temperature yesterday: 30 °F

Past Weeks' High & Low Weather Summary

 TemperatureHumidityPressure
High50 °F (Apr 9, 5:00 PM)100% (Apr 4, 3:00 AM)30.44 "Hg (Apr 4, 3:00 AM)
Low0 °F (Apr 5, 7:00 AM)24% (Apr 15, 4:00 PM)29.31 "Hg (Apr 10, 1:00 AM)
Average32 °F70%29.97 "Hg
* Reported Apr 3 3:00 PM — Apr 18 3:00 PM, Thunder Bay, Weather by CustomWeather, © 2014

Note: Actual official high and low records may vary slightly from our data, if they occured in-between our weather recording intervals... More about our weather records

Advertising

Historic Weather Conditions — Data for Previous 24 hours

 ConditionsComfort  
Time TempWeatherWind HumidityBarometerVisibility
3:00 PM
Apr 18
39 °FPassing clouds.3 mph56%30.44 "Hg20 mi
2:00 PM39 °FPartly sunny.6 mph56%30.44 "Hg20 mi
1:00 PM36 °FPartly sunny.No wind65%30.44 "Hg20 mi
12:00 PM34 °FScattered clouds.2 mph70%30.44 "Hg20 mi
11:00 AM34 °FScattered clouds.2 mph75%30.43 "Hg20 mi
10:00 AM30 °FPartly sunny.3 mph86%30.42 "Hg20 mi
9:00 AM27 °FPassing clouds.6 mph86%30.41 "Hg20 mi
8:00 AM23 °FPassing clouds.8 mph100%30.39 "Hg20 mi
7:00 AM23 °FPassing clouds.6 mph93%30.37 "Hg20 mi
6:00 AM23 °FPassing clouds.6 mph93%30.36 "Hg15 mi
5:00 AM25 °FPassing clouds.7 mph93%30.34 "Hg15 mi
4:00 AM27 °FOvercast.5 mph93%30.34 "Hg15 mi
3:00 AM25 °FLight snow. Overcast.7 mph100%30.33 "Hg15 mi
2:00 AM28 °FLight snow. Mostly cloudy.5 mph93%30.32 "Hg15 mi
1:00 AM28 °FLight snow. Overcast.7 mph93%30.31 "Hg15 mi
12:00 AM30 °FLight snow. Mostly cloudy.5 mph93%30.31 "Hg15 mi
11:00 PM
Apr 17
32 °FLight snow. Mostly cloudy.5 mph93%30.30 "Hg10 mi
10:00 PM32 °FLight snow. Mostly cloudy.2 mph93%30.29 "Hg4 mi
9:00 PM32 °FLight snow. Mostly cloudy.No wind93%30.29 "Hg6 mi
8:00 PM32 °FLight snow. Mostly cloudy.7 mph93%30.28 "Hg5 mi
7:00 PM32 °FLight snow. Mostly cloudy.7 mph93%30.28 "Hg3 mi
6:00 PM32 °FLight snow. Mostly cloudy.13 mph93%30.27 "Hg3 mi
5:00 PM32 °FLight snow. Mostly cloudy.13 mph93%30.26 "Hg2 mi
4:51 PM32 °FLight snow. Low clouds.14 mph93%30.26 "Hg2 mi
4:00 PM32 °FLight snow. Mostly cloudy.15 mph93%30.27 "Hg1 mi
Weather by CustomWeather, © 2014

See weather overview